FW1969 Weather Reports


time (UTC)temp
C
wind
direction
speed
KPH
gust
KPH
rain 1hr
cm
rain 24hr
cm
rain mn
cm
humidity
%
barometer
mb
20260504003036 16 192 6.4 16.1 0.00 0.00 0.00 29 1008.6
20260504001520 16 202 8.0 16.1 0.00 0.00 0.00 28 1008.5
20260504000019 17 203 11.3 24.1 0.00 0.00 0.00 27 1008.4
20260503234519 17 214 8.0 17.7 0.00 0.00 0.00 27 1008.6
20260503233018 17 179 11.3 20.9 0.00 0.00 0.00 25 1008.5
20260503231516 17 175 9.7 19.3 0.00 0.00 0.00 24 1008.5
20260503230014 18 222 8.0 19.3 0.00 0.00 0.00 24 1008.8
20260503224524 17 231 11.3 27.4 0.00 0.00 0.00 24 1009.2
20260503223010 17 213 16.1 25.7 0.00 0.00 0.00 22 1009.4
20260503221509 18 157 8.0 16.1 0.00 0.00 0.00 21 1009.7
20260503220108 18 168 12.9 27.4 0.00 0.00 0.00 21 1009.5
20260503214505 18 223 12.9 27.4 0.00 0.00 0.00 19 1010.1
20260503213004 18 263 11.3 29.0 0.00 0.00 0.00 21 1010.2
20260503211504 18 223 16.1 32.2 0.00 0.00 0.00 19 1010.3
20260503210002 18 221 11.3 24.1 0.00 0.00 0.00 18 1010.1
20260503204600 19 199 12.9 20.9 0.00 0.00 0.00 19 1010.6
20260503203109 18 225 12.9 24.1 0.00 0.00 0.00 18 1010.7
20260503201559 18 219 8.0 24.1 0.00 0.00 0.00 19 1011.0
20260503200053 18 186 6.4 24.1 0.00 0.00 0.00 18 1011.3
20260503194554 18 231 8.0 29.0 0.00 0.00 0.00 18 1012.0
20260503193047 18 222 12.9 32.2 0.00 0.00 0.00 17 1012.4
20260503191546 18 227 12.9 25.7 0.00 0.00 0.00 17 1012.7
20260503190043 17 150 9.7 25.7 0.00 0.00 0.00 17 1012.9
20260503184600 17 196 14.5 24.1 0.00 0.00 0.00 17 1013.2
20260503183040 18 260 12.9 20.9 0.00 0.00 0.00 17 1013.6
20260503181535 17 176 8.0 19.3 0.00 0.00 0.00 18 1013.6
20260503180036 17 173 8.0 24.1 0.00 0.00 0.00 19 1013.9
20260503174533 17 216 11.3 29.0 0.00 0.00 0.00 20 1014.1
20260503173034 16 152 11.3 20.9 0.00 0.00 0.00 20 1014.4
20260503171526 16 191 4.8 17.7 0.00 0.00 0.00 20 1014.7
20260503081503 3 329 0.0 0.0 0.00 0.00 0.00 55 1014.8
20260503071611 3 329 0.0 0.0 0.00 0.00 0.00 54 1014.6
20260503054556 5 329 0.0 0.0 0.00 0.00 0.00 49 1014.8
20260503053042 6 329 0.0 0.0 0.00 0.00 0.00 48 1014.9
20260503051539 6 329 0.0 0.0 0.00 0.00 0.00 48 1014.8
20260503050041 7 329 0.0 0.0 0.00 0.00 0.00 45 1014.8
20260503044545 7 329 0.0 4.8 0.00 0.00 0.00 44 1014.8
20260503043043 7 329 3.2 8.0 0.00 0.00 0.00 42 1014.8
20260503041529 7 329 4.8 8.0 0.00 0.00 0.00 43 1014.7
20260503040032 7 328 1.6 6.4 0.00 0.00 0.00 42 1014.7
20260503034525 8 328 1.6 6.4 0.00 0.00 0.00 42 1014.7
20260503033023 8 328 3.2 6.4 0.00 0.00 0.00 42 1014.7
20260503031622 8 328 4.8 8.0 0.00 0.00 0.00 41 1014.5
20260503030021 8 328 4.8 6.4 0.00 0.00 0.00 42 1014.4
20260503024520 9 328 3.2 4.8 0.00 0.00 0.00 41 1014.5
20260503023020 9 328 1.6 4.8 0.00 0.00 0.00 40 1014.4
20260503021517 10 328 1.6 4.8 0.00 0.00 0.00 39 1014.1
20260503020016 10 328 1.6 6.4 0.00 0.00 0.00 39 1013.9
20260503014515 10 328 3.2 8.0 0.00 0.00 0.00 39 1013.6
20260503013015 10 327 1.6 4.8 0.00 0.00 0.00 39 1013.4
20260503011515 10 327 3.2 6.4 0.00 0.00 0.00 40 1013.1
20260503010014 11 327 3.2 8.0 0.00 0.00 0.00 39 1012.9
20260503004514 11 326 3.2 6.4 0.00 0.00 0.00 38 1012.8